TimeMST,TemperatureF,Dew PointF,Humidity,Sea Level PressureIn,VisibilityMPH,Wind Direction,Wind SpeedMPH,Gust SpeedMPH,PrecipitationIn,Events,Conditions,WindDirDegrees,DateUTC
12:51 AM,41.0,18.0,40,30.04,10.0,ESE,5.8,-,N/A,,Clear,120,2012-02-21 07:51:00
1:51 AM,41.0,17.1,38,30.03,10.0,East,3.5,-,N/A,,Clear,100,2012-02-21 08:51:00
2:51 AM,39.0,15.1,38,30.01,10.0,ESE,3.5,-,N/A,,Clear,120,2012-02-21 09:51:00
3:51 AM,35.1,15.1,44,30.02,10.0,Calm,Calm,-,N/A,,Clear,0,2012-02-21 10:51:00
4:51 AM,37.0,14.0,39,30.03,10.0,SSW,3.5,-,N/A,,Clear,200,2012-02-21 11:51:00
5:51 AM,37.0,15.1,41,30.05,10.0,Calm,Calm,-,N/A,,Clear,0,2012-02-21 12:51:00
6:51 AM,28.9,12.9,51,30.09,10.0,NE,4.6,-,N/A,,Partly Cloudy,50,2012-02-21 13:51:00
7:51 AM,37.0,15.1,41,30.10,10.0,North,3.5,-,N/A,,Partly Cloudy,10,2012-02-21 14:51:00
8:51 AM,44.6,15.8,31,30.18,10.0,NNE,5.8,-,N/A,,Clear,30,2012-02-21 15:51:00
9:51 AM,51.1,17.1,26,30.11,10.0,North,4.6,-,N/A,,Clear,360,2012-02-21 16:51:00
10:51 AM,55.9,15.1,20,30.09,10.0,Calm,Calm,-,N/A,,Clear,0,2012-02-21 17:51:00
11:51 AM,61.0,14.0,16,30.05,10.0,Calm,Calm,-,N/A,,Clear,0,2012-02-21 18:51:00
12:51 PM,64.9,10.0,12,30.00,10.0,SSW,9.2,-,N/A,,Partly Cloudy,210,2012-02-21 19:51:00
1:51 PM,66.9,10.9,11,29.97,10.0,SW,13.8,18.4,N/A,,Partly Cloudy,230,2012-02-21 20:51:00
2:51 PM,66.9,9.0,10,29.96,10.0,WNW,6.9,-,N/A,,Scattered Clouds,300,2012-02-21 21:51:00
3:51 PM,68.0,5.0,8,29.96,10.0,WNW,9.2,16.1,N/A,,Scattered Clouds,290,2012-02-21 22:51:00
4:51 PM,66.9,5.0,9,29.96,10.0,WSW,12.7,16.1,N/A,,Partly Cloudy,250,2012-02-21 23:51:00
5:51 PM,64.0,7.0,11,29.96,10.0,WSW,10.4,-,N/A,,Partly Cloudy,250,2012-02-22 00:51:00
6:51 PM,62.6,10.4,13,30.06,10.0,WSW,4.6,-,N/A,,Partly Cloudy,250,2012-02-22 01:51:00
7:51 PM,57.9,10.9,16,29.98,10.0,South,4.6,-,N/A,,Clear,190,2012-02-22 02:51:00
8:51 PM,61.0,12.9,15,29.97,10.0,Calm,Calm,-,N/A,,Clear,0,2012-02-22 03:51:00
9:51 PM,59.0,14.0,17,29.98,10.0,NNW,8.1,-,N/A,,Clear,340,2012-02-22 04:51:00
10:51 PM,57.0,14.0,18,29.97,10.0,West,8.1,-,N/A,,Clear,260,2012-02-22 05:51:00
11:51 PM,59.0,14.0,17,29.96,10.0,WNW,12.7,-,N/A,,Clear,290,2012-02-22 06:51:00